Regional Weather Roundup
Issued by NWS

Home | Current Version | Previous Version | Graphics & Text | Print | Product List | Glossary Off
Versions: 1 2 3 4 5 6 7 8 9 10 11 12 13 14 15 16 17 18 19 20 21 22 23 24 25 26 27 28 29 30 31 32 33 34 35 36 37 38 39 40 41 42 43 44 45 46 47 48 49 50

023
ASUS43 KDTX 191610
RWRMI
MICHIGAN HOURLY REGIONAL WEATHER ROUNDUP
NATIONAL WEATHER SERVICE DETROIT/PONTIAC MI
1100 AM EST SUN NOV 19 2017

NOTE: "FAIR" INDICATES FEW OR NO CLOUDS BELOW 12,000 FEET WITH NO
SIGNIFICANT WEATHER AND/OR OBSTRUCTION TO VISIBILITY.

MIZ047>049-052>055-059>063-066>070-074>076-081>083-191700-
SOUTHEAST LOWER MICHIGAN

CITY           SKY/WX    TMP DP  RH WIND       PRES   REMARKS
ADRIAN         LGT SNOW  34  28  79 W13G25    29.90R WCI  25
ALMA           CLOUDY    33  26  77 NW18      29.88R WCI  21
ANN ARBOR      CLOUDY    35  28  75 W17       29.85S WCI  25
BAD AXE        CLOUDY    33  25  72 NW13G20   29.79R WCI  24
CARO           CLOUDY    33  26  73 NW13G21   29.82R WCI  24
DETROIT CITY   CLOUDY    49  28  44 W14G20    29.84R
DETROIT        CLOUDY    36  30  79 W14       29.85R WCI  27
FLINT          FLURRIES  34  28  79 W17G26    29.84R WCI  23
GROSSE ILE     CLOUDY    35  31  86 NW13      29.85R WCI  26
HILLSDALE      CLOUDY    34  28  80 W13G20    29.88R WCI  25
HOWELL         FLURRIES  33  29  87 NW14G22   29.85R WCI  23

CITY           SKY/WX    TMP DP  RH WIND       PRES   REMARKS
JACKSON        CLOUDY    34  24  67 W9        29.88R WCI  27
LAMBERTVILLE   CLOUDY    38  31  76 W9        29.88R WCI  32
LANSING        CLOUDY    33  26  75 W14       29.88R WCI  23
LAPEER         CLOUDY    34  28  78 NW9       29.82R WCI  26
MASON          CLOUDY    36  26  68 NW16G22   29.87R WCI  26
MONROE         CLOUDY    38  29  71 W18       29.86R WCI  28
MT. CLEMENS    FLURRIES  37  28  70 W13       29.80R WCI  29
PONTIAC        LGT SNOW  33  29  85 W16G25    29.82R VSB 1   WCI  23
PORT HOPE        N/A     35  23  61 NW18G29   29.76R WCI  24
PORT HURON     SNOW      32  28  86 MISG      29.80R VSB 1/2
TRI CITIES     FLURRIES  33  27  78 NW16G23   29.85R WCI  23
MIDLAND        LGT SNOW  32  27  84 W12       29.84R WCI  23
TROY           FLURRIES  38  30  74 W13G18    29.85R WCI  30
SAGINAW HB     CLOUDY    34  25  69 W15G23    29.83R WCI  24
$$
MIZ043>046-050>051-056>058-064>065-071>073-077>080-191700-
SOUTHWEST LOWER MICHIGAN

CITY           SKY/WX    TMP DP  RH WIND       PRES   REMARKS
BATTLE CREEK   CLOUDY    34  25  69 NW13      29.91R WCI  25
BENTON HARBOR  CLOUDY    34  22  61 NW14      29.98R WCI  25
BIG RAPIDS     LGT SNOW  29  24  82 NW5       29.86R WCI  24
COLDWATER      CLOUDY    34  25  68 W15       29.91S WCI  24
FREMONT        FLURRIES  31  24  76 NW13      29.91R WCI  21
HOLLAND        FLURRIES  33  23  66 NW14G23   29.94R WCI  23
GRAND RAPIDS   FLURRIES  33  26  75 W15       29.90R WCI  23
IONIA          CLOUDY    32  26  77 W6        29.88R WCI  27
KALAMAZOO      FLURRIES  33  24  69 W9        29.93R WCI  25
LUDINGTON      CLOUDY    30  18  60 NW12      29.92R WCI  21
MARSHALL       FLURRIES  33  27  79 W7        29.89S WCI  27
MOUNT PLEASANT CLOUDY    32  20  60 NW10G17   29.85R WCI  24
MUSKEGON       FLURRIES  32  19  58 NW14G26   29.94R WCI  22
SOUTH HAVEN    CLOUDY    34  23  64 W13G20    29.96R WCI  25
$$
MIZ016>042-191700-
NORTHERN LOWER MICHIGAN

CITY           SKY/WX    TMP DP  RH WIND       PRES   REMARKS
ALPENA         CLOUDY    33  20  58 NW14G24   29.78R WCI  23
BEAVER ISLAND  CLOUDY    29  20  68 NW10G21   29.84R WCI  19
BELLAIRE       CLOUDY    30  22  69 NW5       29.85R WCI  26
CADILLAC       LGT SNOW  27  23  85 W10       29.82R WCI  17
CHARLEVOIX     LGT SNOW  30  24  77 NW16G25   29.87R WCI  19
FRANKFORT      FLURRIES  32  20  62 NW16G23   29.89R WCI  21
GAYLORD        SNOW      25  21  85 W10G22    29.78R VSB 1/4 WCI  15
GRAYLING       CLOUDY    28  20  72 NW12G17   29.81R WCI  18
HARBOR SPRINGS CLOUDY    29  18  63 W12G22    29.81R WCI  20
MANISTEE       MIX PCPN  30  21  69 NW13G25   29.90R WCI  20
OSCODA         FLURRIES  30  22  72 NW9G17    29.78R WCI  22
PELLSTON       FLURRIES  27  23  85 NW7       29.81S WCI  19
ROGERS CITY    CLOUDY    30  21  68 N17G24    29.79R WCI  18
TRAVERSE CITY  CLOUDY    31  19  61 NW12      29.85R WCI  22
$$
MIZ007>008-015-191700-
EASTERN UPPER MICHIGAN

CITY           SKY/WX    TMP DP  RH WIND       PRES   REMARKS
KINROSS        LGT SNOW  23  17  78 N6        29.79R WCI  16
MACKINAC ISLAN CLOUDY    28  17  64 NW6       29.80R WCI  22
NEWBERRY       CLOUDY    25  18  73 NW9G21    29.80R WCI  16
S. S. MARIE    MIX PCPN  24  13  62 N7G17     29.79R WCI  16
MUNISING         N/A     28  24  85 N15G23    29.85S WCI  16
$$
MIZ004>006-011>014-085-191700-
CENTRAL UPPER MICHIGAN

CITY           SKY/WX    TMP DP  RH WIND       PRES   REMARKS
MANISTIQUE     FLURRIES  26  15  62 NW16G22   29.85R WCI  13
ESCANABA       FLURRIES  26  14  60 W16G22    29.90S WCI  14
MENOMINEE      FLURRIES  24  13  62 NW10G18   29.96R WCI  14
SAWYER-GWINN   FLURRIES  21  16  79 W9        29.85S WCI  11
$$
MIZ001>003-009>011-084-191700-
WESTERN UPPER MICHIGAN

CITY           SKY/WX    TMP DP  RH WIND       PRES   REMARKS
IRON MOUNTAIN  CLOUDY    22   9  57 W17G23    29.90R WCI   8
HOUGHTON       CLOUDY    22  14  71 NW16      29.84S WCI   8
COPPER HARBOR    N/A     25  16  68 N17       29.87R WCI  12
IRONWOOD       FLURRIES N/A N/A N/A W15       29.94R
$$

ABBREVIATIONS USED IN REMARKS
   TC - TEMPERATURE IN CELSIUS
  WCI - WIND CHILL INDEX
   HX - HEAT INDEX
  VSB - VISIBILITY





USA.gov is the U.S. government's official web portal to all federal, state and local government web resources and services.